[[{"header":{"parameterUnit":"m.s-1","parameterCategory":1,"la1":30.2992,"la2":30.254,"lo1":-89.0895,"lo2":-89.0443,"dy":0.0025,"dx":0.0025,"nx":19,"ny":19,"refTime":"2026-03-12T21:00:00:Z","depth":0,"parameterNumber":2,"parameterNumberName":"U-component_of_WINDS"},"data":[0,0,0,-3.1267,-3.127,-3.1396,-3.1397,-3.1584,-3.1586,0,0,0,0,0,0,0,0,0,0,0,-3.1247,-3.1249,-3.1267,-3.127,-3.1396,-3.1397,-3.1584,-3.1586,0,0,0,0,0,0,0,0,0,0,0,-3.1246,-3.1248,-3.1251,-3.1271,-3.1396,-3.1397,-3.1584,-3.1479,0,0,0,0,0,0,0,0,0,0,-3.1352,-3.1351,-3.1248,-3.1251,-3.1272,-3.1396,-3.1397,-3.1473,-3.1485,-3.1539,0,-3.1592,0,-3.1592,-3.1601,-3.1601,0,0,0,-3.1258,-3.1341,-3.1359,-3.1251,-3.1273,-3.1396,-3.1336,-3.148,-3.1493,-3.1555,-3.1595,-3.1601,-3.1595,-3.1602,-3.1603,-3.1956,-3.1958,0,0,-3.1251,-3.1279,-3.135,-3.1369,-3.1352,-3.1332,-3.134,-3.1488,-3.1532,-3.1595,-3.1605,-3.1599,-3.1603,-3.1605,-3.1954,-3.1957,0,0,0,-3.1239,-3.1275,-3.1289,-3.1362,-3.1382,-3.1336,-3.1345,-3.1526,-3.1528,-3.1606,-3.1601,-3.1605,-3.1607,-3.1952,-3.1955,-3.2095,0,0,0,-3.1234,-3.1268,-3.1286,-3.1305,-3.138,-3.1456,-3.138,-3.1518,-3.1533,-3.16,-3.1605,-3.1609,-3.1949,-3.1954,-3.2086,-3.2157,0,0,0,-3.1233,-3.1267,-3.1292,-3.1306,-3.1361,-3.1453,-3.1463,-3.152,-3.1531,-3.1602,-3.161,-3.1947,-3.1953,-3.2078,-3.2144,-3.2259,0,0,0,-3.1239,-3.1415,-3.1294,-3.1487,-3.1361,-3.1538,-3.1462,-3.1592,-3.167,-3.1606,-3.195,-3.1955,-3.2075,-3.2135,-3.225,-3.2362,-3.2411,0,0,-3.1477,-3.1444,-3.1555,-3.1451,-3.1658,-3.1516,-3.1743,-3.1787,-3.1767,-3.1894,-3.1902,-3.2089,-3.2143,-3.2257,-3.2672,-3.2712,0,0,0,-3.164,-3.1721,-3.1769,-3.1844,-3.1881,-3.1919,-3.1925,-3.194,-3.2047,-3.1838,-3.216,-3.2191,-3.2257,-3.2309,-3.2342,-3.2397,-3.198,-3.1979,-3.1979,-3.2019,-3.1983,-3.2165,-3.2144,-3.2218,-3.2221,-3.2277,-3.2298,-3.2242,-3.2318,-3.2356,-3.2613,-3.2675,-3.27,-3.2757,-3.2411,-3.2411,-3.2412,-3.2412,-3.2364,-3.2473,-3.2391,-3.2538,-3.2499,-3.2622,-3.263,-3.2586,-3.2694,-3.2581,-3.2638,-3.252,-3.2744,-3.2792,-3.2422,-3.2421,-3.2419,-3.2418,-3.2418,-3.261,-3.2655,-3.2671,-3.2774,-3.2857,-3.2828,-3.2936,-3.2896,-3.2859,-3.2914,-3.295,-3.2948,-3.2941,-3.2934,-3.2935,-3.2936,-3.2936,-3.2937,-3.2938,-3.2859,-3.2872,-3.2967,-3.302,-3.3061,-3.3111,-3.3113,-3.3153,-3.3187,-3.3149,-3.3149,-3.3085,-3.2772,-3.2695,-3.2951,-3.2949,-3.2947,-3.2946,-3.2945,-3.3226,-3.3136,-3.3284,-3.3326,-3.3383,-3.3467,-3.3413,-3.3497,-3.3524,-3.3578,-3.35,-3.3274,-3.3239,-3.3212,-3.3148,-3.3507,-3.3507,-3.3507,-3.3507,-3.3435,-3.3411,-3.3553,-3.3622,-3.3685,-3.365,-3.3817,-3.382,-3.3808,-3.3822,-3.3764,-3.3674,-3.3649,-3.3629,-3.3593,-3.3533,-3.3981,-3.3981,-3.3982,-3.3658,-3.3639,-3.379,-3.3777,-3.3818,-3.3853,-3.4009,-3.409,-3.4058,-3.4,-3.3832,-3.3812,-3.3668,-3.3622,-3.3564,-3.351,-3.3398,0,0]},{"header":{"parameterUnit":"m.s-1","parameterCategory":1,"la1":30.2992,"la2":30.254,"lo1":-89.0895,"lo2":-89.0443,"dy":0.0025,"dx":0.0025,"nx":19,"ny":19,"refTime":"2026-03-12T21:00:00:Z","depth":0,"parameterNumber":3,"parameterNumberName":"V-component_of_WINDS"},"data":[0,0,0,-5.3744,-5.3749,-5.397,-5.397,-5.4262,-5.4264,0,0,0,0,0,0,0,0,0,0,0,-5.3687,-5.3689,-5.3744,-5.3749,-5.397,-5.397,-5.4261,-5.4264,0,0,0,0,0,0,0,0,0,0,0,-5.3686,-5.3689,-5.3692,-5.375,-5.3969,-5.3971,-5.426,-5.409,0,0,0,0,0,0,0,0,0,0,-5.3874,-5.3831,-5.3688,-5.3692,-5.3752,-5.3969,-5.3971,-5.4082,-5.4101,-5.4167,0,-5.423,0,-5.4252,-5.4285,-5.4286,0,0,0,-5.3742,-5.3815,-5.3867,-5.3692,-5.3754,-5.3969,-5.3868,-5.4092,-5.4114,-5.4192,-5.4234,-5.4244,-5.4257,-5.4287,-5.4288,-5.4695,-5.4697,0,0,-5.373,-5.3731,-5.3852,-5.3881,-5.3851,-5.3861,-5.3875,-5.4105,-5.415,-5.4235,-5.4251,-5.4262,-5.4289,-5.4291,-5.4693,-5.4695,0,0,0,-5.37,-5.3723,-5.3769,-5.387,-5.3909,-5.3868,-5.3884,-5.414,-5.4155,-5.4254,-5.4265,-5.429,-5.4294,-5.469,-5.4694,-5.4805,0,0,0,-5.3692,-5.3705,-5.3764,-5.3766,-5.3905,-5.4028,-5.3914,-5.4139,-5.4165,-5.4263,-5.4291,-5.4297,-5.4688,-5.4692,-5.4797,-5.4857,0,0,0,-5.367,-5.3702,-5.3737,-5.3766,-5.3861,-5.4024,-5.4052,-5.4144,-5.4172,-5.4286,-5.4298,-5.4686,-5.4691,-5.4789,-5.4845,-5.4964,0,0,0,-5.3646,-5.3833,-5.3739,-5.3952,-5.3859,-5.4092,-5.4051,-5.4223,-5.4334,-5.4292,-5.4688,-5.4693,-5.4787,-5.4838,-5.4956,-5.5065,-5.511,0,0,-5.3883,-5.3862,-5.3987,-5.3909,-5.4159,-5.4058,-5.4323,-5.4423,-5.4432,-5.4606,-5.4616,-5.4799,-5.4844,-5.4963,-5.5364,-5.54,0,0,0,-5.4062,-5.4153,-5.4218,-5.4325,-5.4407,-5.448,-5.454,-5.4576,-5.4724,-5.4523,-5.4874,-5.4901,-5.497,-5.5022,-5.5053,-5.5111,-5.4717,-5.4717,-5.4716,-5.44,-5.4402,-5.4608,-5.4636,-5.474,-5.4798,-5.4881,-5.494,-5.4911,-5.4994,-5.5046,-5.529,-5.535,-5.5373,-5.5434,-5.5103,-5.5104,-5.5104,-5.5104,-5.4747,-5.4874,-5.4831,-5.5016,-5.5016,-5.517,-5.5232,-5.5206,-5.5348,-5.5251,-5.5312,-5.5206,-5.5413,-5.5466,-5.5113,-5.5111,-5.511,-5.5109,-5.5109,-5.4969,-5.503,-5.5071,-5.5224,-5.534,-5.536,-5.5499,-5.5493,-5.5488,-5.5548,-5.5601,-5.56,-5.5596,-5.5574,-5.5575,-5.5576,-5.5576,-5.5577,-5.5578,-5.5182,-5.5225,-5.5344,-5.5444,-5.551,-5.5596,-5.5655,-5.5719,-5.5788,-5.5773,-5.5773,-5.5735,-5.5433,-5.5357,-5.5591,-5.5588,-5.5587,-5.5585,-5.5585,-5.5534,-5.5453,-5.5636,-5.5703,-5.5818,-5.5933,-5.5923,-5.6054,-5.6105,-5.6173,-5.6122,-5.5899,-5.5877,-5.5853,-5.579,-5.6121,-5.6121,-5.6121,-5.6122,-5.5721,-5.5709,-5.5893,-5.5999,-5.6102,-5.6111,-5.6314,-5.636,-5.6394,-5.6426,-5.6376,-5.6292,-5.6267,-5.626,-5.6227,-5.6168,-5.6588,-5.6589,-5.6589,-5.5937,-5.5934,-5.611,-5.6144,-5.6233,-5.6309,-5.6499,-5.662,-5.6642,-5.6608,-5.645,-5.643,-5.6294,-5.625,-5.6214,-5.6162,-5.6054,0,0]}]]